Regional Weather Roundup
Issued by NWS

Home | Current Version | Previous Version | Text Only | Print | Product List | Glossary On
Versions: 1 2 3 4 5 6 7 8 9 10 11 12 13 14 15 16 17 18 19 20 21 22 23 24 25 26 27 28 29 30 31 32 33 34 35 36 37 38 39 40 41 42 43 44 45 46 47 48 49 50
000
ASUS42 KKEY 161810
RWRKEY

FLORIDA REGIONAL WEATHER ROUNDUP FOR THE FLORIDA KEYS
NATIONAL WEATHER SERVICE KEY WEST FLORIDA
200 PM EDT TUE SEP 16 2014

...SOUTH FLORIDA AND THE KEYS...

CITY           SKY/WX    TMP DP  RH WIND       PRES   REMARKS
FORT MYERS     MOSUNNY   93  68  43 CALM      30.03F HX  97
SW REGIONAL AP MOSUNNY   92  69  47 NW5       30.03F HX  97
NAPLES         MOSUNNY   88  75  65 W13       30.04F HX  97
MIAMI          PTSUNNY   88  72  58 E9        30.02F HX  94
WEST KENDALL   SUNNY     92  69  47 SE6       30.02F HX  97
HOMESTEAD      SUNNY     89  73  59 E6        30.03F HX  96
MARATHON       SUNNY     89  75  63 SE6       30.03F HX  99
BOCA CHICA NAS PTSUNNY   88  73  61 E8        30.03F HX  95
KEY WEST INTL  SUNNY     88  75  65 SE7       30.04F HX  97

...INTERNATIONAL WEATHER...

CITY           SKY/WX    TMP DP  RH WIND       PRES   REMARKS
NASSAU BAHAMAS MOSUNNY   90  77  66 E7        30.03F HX 102
CANCUN MEXICO  PTSUNNY   88  75  66 E7        30.02F HX  97
COZUMEL MEXICO PTSUNNY   86  75  70 SE9       30.01F HX  95

ADJACENT COASTAL WATERS...

STATION/POSITION TIME  SKY/WX   TEMP    WIND        PRES    WAVE
                                AIR SEA DIR/SP/G            HT/PER
                 (UTC)          (F)     (DEG/KT/KT) (MB)    (FT/S)
PULASKI SHOAL LI 1800            84     110/  3/  4 1017.2F
SAND KEY         1800            83      70/  7/  8 1017.2F
SOMBRERO KEY     1800            86     100/  7/  8 1017.7F
LONG KEY         1659            85 85  110/  6/  7 1018.2F
MOLASSES REEF    1800            83 86  100/  5/  6 1017.0F
FOWEY ROCKS      1800            83 86  120/  4/  4 1017.3F
Buoy 42080       NOT AVBL

$$


USA.gov is the U.S. government's official web portal to all federal, state and local government web resources and services.